CCM69 LFKJ-LFML

Flight info

Callsign CCM69
Flight time 0h 45m
Altitude 24000
Route TINOT
Aircraft A20N/M-SDE2E3FGHIRWXY/LB1

Departure

Time 2026-04-23 14:57
Airport Ajaccio Napoléon Bonaparte airport (LFKJ)

Arrival

Time 2026-04-23 15:42
Airport Marseille Provence Airport (LFML)
Time Latitude Longitude Altitude Speed Heading
2026-04-23 14:29 41.91758 8.79434 34 ft 0 kts 342°
2026-04-23 14:49 41.91752 8.79437 36 ft 2 kts 342°
2026-04-23 14:49 41.91739 8.79443 34 ft 2 kts 343°
2026-04-23 14:49 41.91724 8.79448 34 ft 2 kts 338°
2026-04-23 14:50 41.91714 8.79462 34 ft 2 kts 289°
2026-04-23 14:50 41.91707 8.79477 34 ft 2 kts 334°
2026-04-23 14:50 41.91692 8.79481 34 ft 1 kts 15°
2026-04-23 14:50 41.91686 8.79477 34 ft 1 kts 31°
2026-04-23 14:51 41.91683 8.79475 34 ft 0 kts 25°
2026-04-23 14:53 41.91690 8.79479 34 ft 5 kts 25°
2026-04-23 14:53 41.91778 8.79534 33 ft 19 kts 25°
2026-04-23 14:53 41.91927 8.79627 33 ft 27 kts 25°
2026-04-23 14:54 41.92110 8.79740 33 ft 29 kts 25°
2026-04-23 14:54 41.92297 8.79856 34 ft 29 kts 25°
2026-04-23 14:54 41.92483 8.79975 34 ft 29 kts 25°
2026-04-23 14:54 41.92670 8.80088 35 ft 28 kts 25°
2026-04-23 14:55 41.92833 8.80236 36 ft 27 kts 44°
2026-04-23 14:55 41.92950 8.80402 38 ft 15 kts 60°
2026-04-23 14:55 41.92958 8.80485 38 ft 6 kts 107°
2026-04-23 14:55 41.92939 8.80540 38 ft 6 kts 126°
2026-04-23 14:56 41.92894 8.80560 38 ft 7 kts 192°
2026-04-23 14:56 41.92838 8.80529 37 ft 9 kts 204°
2026-04-23 14:56 41.92633 8.80400 36 ft 71 kts 205°
2026-04-23 14:56 41.91952 8.79974 34 ft 142 kts 206°
2026-04-23 14:57 41.90942 8.79341 436 ft 167 kts 206°
2026-04-23 14:57 41.89943 8.78628 1205 ft 169 kts 213°
2026-04-23 14:57 41.88997 8.77712 1869 ft 173 kts 215°
2026-04-23 14:57 41.87981 8.76750 2354 ft 188 kts 215°
2026-04-23 14:58 41.86856 8.75695 2810 ft 207 kts 215°
2026-04-23 14:58 41.85597 8.74535 2961 ft 242 kts 214°
2026-04-23 14:58 41.84112 8.73189 2964 ft 267 kts 213°
2026-04-23 14:58 41.82553 8.71786 2979 ft 270 kts 213°
2026-04-23 14:59 41.81001 8.70396 2985 ft 270 kts 213°
2026-04-23 14:59 41.79427 8.68985 3035 ft 274 kts 214°
2026-04-23 14:59 41.77826 8.67548 3670 ft 280 kts 214°
2026-04-23 14:59 41.76239 8.66122 4730 ft 278 kts 214°
2026-04-23 15:00 41.74650 8.64694 5653 ft 281 kts 213°
2026-04-23 15:00 41.73056 8.63186 6504 ft 286 kts 222°
2026-04-23 15:00 41.71943 8.60995 7313 ft 289 kts 254°
2026-04-23 15:00 41.71768 8.58373 8144 ft 287 kts 283°
2026-04-23 15:01 41.72481 8.55926 8972 ft 285 kts 304°
2026-04-23 15:01 41.73489 8.53667 9773 ft 289 kts 305°
2026-04-23 15:01 41.74510 8.51359 10591 ft 294 kts 305°
2026-04-23 15:01 41.75568 8.48930 11105 ft 309 kts 304°
2026-04-23 15:02 41.76289 8.47253 11381 ft 321 kts 304°
2026-04-23 15:02 41.77829 8.43631 11857 ft 346 kts 303°
2026-04-23 15:02 41.79031 8.40777 12159 ft 364 kts 303°
2026-04-23 15:02 41.80297 8.37760 12491 ft 381 kts 303°
2026-04-23 15:03 41.81609 8.34625 12948 ft 392 kts 302°
2026-04-23 15:03 41.82920 8.31431 13587 ft 397 kts 301°
2026-04-23 15:03 41.84122 8.28106 14309 ft 401 kts 297°
2026-04-23 15:03 41.85212 8.24648 14978 ft 405 kts 295°
2026-04-23 15:04 41.86281 8.21144 15599 ft 409 kts 295°
2026-04-23 15:04 41.87351 8.17619 16212 ft 413 kts 295°
2026-04-23 15:04 41.88430 8.14058 16815 ft 417 kts 294°
2026-04-23 15:04 41.89521 8.10453 17405 ft 420 kts 294°
2026-04-23 15:05 41.90622 8.06812 17991 ft 423 kts 294°
2026-04-23 15:05 41.91732 8.03144 18560 ft 427 kts 294°
2026-04-23 15:05 41.92846 7.99460 19085 ft 430 kts 294°
2026-04-23 15:05 41.93980 7.95699 19637 ft 434 kts 294°
2026-04-23 15:06 41.95105 7.91964 20162 ft 437 kts 294°
2026-04-23 15:06 41.96241 7.88187 20682 ft 440 kts 295°
2026-04-23 15:06 41.97381 7.84393 21208 ft 442 kts 295°
2026-04-23 15:06 41.98539 7.80543 21696 ft 445 kts 295°
2026-04-23 15:07 41.99692 7.76694 22158 ft 448 kts 295°
2026-04-23 15:07 42.00851 7.72810 22664 ft 450 kts 295°
2026-04-23 15:07 42.02020 7.68898 23147 ft 452 kts 295°
2026-04-23 15:07 42.03196 7.64967 23593 ft 455 kts 295°
2026-04-23 15:08 42.04364 7.61052 24008 ft 457 kts 296°
2026-04-23 15:08 42.05541 7.57094 24154 ft 453 kts 296°
2026-04-23 15:08 42.06693 7.53205 24157 ft 450 kts 296°
2026-04-23 15:09 42.09006 7.45418 24152 ft 446 kts 296°
2026-04-23 15:09 42.10146 7.41562 24149 ft 445 kts 296°
2026-04-23 15:09 42.11280 7.37726 24155 ft 442 kts 296°
2026-04-23 15:09 42.12408 7.33908 24162 ft 441 kts 296°
2026-04-23 15:10 42.13166 7.31339 24160 ft 442 kts 296°
2026-04-23 15:10 42.14667 7.26238 24166 ft 441 kts 296°
2026-04-23 15:10 42.15801 7.22376 24160 ft 440 kts 296°
2026-04-23 15:10 42.16919 7.18568 24167 ft 441 kts 296°
2026-04-23 15:11 42.18043 7.14728 24161 ft 440 kts 296°
2026-04-23 15:11 42.19160 7.10907 24170 ft 437 kts 296°
2026-04-23 15:11 42.20258 7.07145 24167 ft 437 kts 296°
2026-04-23 15:11 42.21364 7.03357 24163 ft 434 kts 296°
2026-04-23 15:12 42.22464 6.99573 24170 ft 431 kts 296°
2026-04-23 15:12 42.23552 6.95835 24179 ft 433 kts 296°
2026-04-23 15:12 42.24659 6.92026 24170 ft 432 kts 296°
2026-04-23 15:12 42.25745 6.88279 24176 ft 432 kts 295°
2026-04-23 15:13 42.26839 6.84498 24178 ft 433 kts 295°
2026-04-23 15:13 42.27931 6.80723 24175 ft 433 kts 295°
2026-04-23 15:13 42.29020 6.76947 24178 ft 434 kts 295°
2026-04-23 15:13 42.30114 6.73147 24181 ft 434 kts 295°
2026-04-23 15:14 42.31201 6.69369 24172 ft 434 kts 296°
2026-04-23 15:14 42.32283 6.65604 24173 ft 433 kts 295°
2026-04-23 15:14 42.33366 6.61827 24173 ft 432 kts 295°
2026-04-23 15:14 42.34451 6.58039 24166 ft 431 kts 295°
2026-04-23 15:15 42.35526 6.54280 24176 ft 430 kts 295°
2026-04-23 15:15 42.36597 6.50526 24178 ft 430 kts 295°
2026-04-23 15:15 42.37675 6.46746 24174 ft 430 kts 295°
2026-04-23 15:15 42.38745 6.42987 24177 ft 429 kts 295°
2026-04-23 15:16 42.39816 6.39223 24176 ft 429 kts 295°
2026-04-23 15:16 42.40871 6.35504 24179 ft 428 kts 295°
2026-04-23 15:16 42.41940 6.31735 24176 ft 429 kts 295°
2026-04-23 15:16 42.43004 6.27978 24175 ft 428 kts 295°
2026-04-23 15:17 42.44070 6.24206 24176 ft 428 kts 295°
2026-04-23 15:17 42.45119 6.20486 24181 ft 427 kts 295°
2026-04-23 15:17 42.46170 6.16756 24179 ft 427 kts 295°
2026-04-23 15:17 42.47222 6.13011 24184 ft 426 kts 295°
2026-04-23 15:18 42.48283 6.09238 24182 ft 425 kts 295°
2026-04-23 15:18 42.49323 6.05532 24186 ft 424 kts 295°
2026-04-23 15:18 42.50362 6.01821 24186 ft 425 kts 295°
2026-04-23 15:18 42.51404 5.98094 24184 ft 424 kts 295°
2026-04-23 15:19 42.52446 5.94365 24189 ft 423 kts 295°
2026-04-23 15:19 42.53484 5.90643 24192 ft 423 kts 295°
2026-04-23 15:19 42.54527 5.86901 24192 ft 423 kts 294°
2026-04-23 15:19 42.55555 5.83204 24198 ft 424 kts 294°
2026-04-23 15:20 42.56243 5.80725 24198 ft 424 kts 294°
2026-04-23 15:20 42.57631 5.75720 23786 ft 422 kts 294°
2026-04-23 15:20 42.58648 5.72039 23385 ft 419 kts 294°
2026-04-23 15:20 42.59663 5.68368 22896 ft 416 kts 294°
2026-04-23 15:21 42.60664 5.64738 22365 ft 413 kts 294°
2026-04-23 15:21 42.61668 5.61094 21809 ft 409 kts 294°
2026-04-23 15:21 42.62647 5.57544 21256 ft 405 kts 294°
2026-04-23 15:21 42.63621 5.53995 20698 ft 401 kts 294°
2026-04-23 15:22 42.64587 5.50476 20147 ft 398 kts 294°
2026-04-23 15:22 42.65548 5.46973 19595 ft 395 kts 294°
2026-04-23 15:22 42.66500 5.43488 19043 ft 392 kts 294°
2026-04-23 15:22 42.67438 5.40052 18496 ft 389 kts 294°
2026-04-23 15:23 42.68362 5.36666 17956 ft 386 kts 294°
2026-04-23 15:23 42.69556 5.33402 17380 ft 380 kts 306°
2026-04-23 15:23 42.71257 5.30711 16932 ft 380 kts 319°
2026-04-23 15:23 42.73387 5.28611 16939 ft 385 kts 329°
2026-04-23 15:24 42.75714 5.26728 16960 ft 387 kts 330°
2026-04-23 15:24 42.78026 5.24891 16981 ft 388 kts 330°
2026-04-23 15:24 42.80362 5.23038 17002 ft 389 kts 330°
2026-04-23 15:24 42.82697 5.21180 17020 ft 389 kts 330°
2026-04-23 15:25 42.85026 5.19323 17030 ft 389 kts 330°
2026-04-23 15:25 42.87346 5.17467 16868 ft 390 kts 330°
2026-04-23 15:25 42.89684 5.15595 16216 ft 389 kts 330°
2026-04-23 15:25 42.92011 5.13757 15590 ft 386 kts 332°
2026-04-23 15:26 42.94401 5.12205 14993 ft 383 kts 338°
2026-04-23 15:26 42.96906 5.10983 14376 ft 380 kts 343°
2026-04-23 15:26 42.99426 5.10045 13784 ft 378 kts 346°
2026-04-23 15:26 43.01965 5.09162 13201 ft 375 kts 346°
2026-04-23 15:27 43.04477 5.08300 12627 ft 373 kts 346°
2026-04-23 15:27 43.06992 5.07434 12047 ft 371 kts 346°
2026-04-23 15:27 43.09484 5.06571 11677 ft 362 kts 347°
2026-04-23 15:27 43.11859 5.05746 11431 ft 350 kts 346°
2026-04-23 15:28 43.14180 5.04936 11176 ft 339 kts 347°
2026-04-23 15:28 43.16439 5.04146 10947 ft 328 kts 347°
2026-04-23 15:28 43.18610 5.03389 10752 ft 316 kts 348°
2026-04-23 15:28 43.20708 5.02823 10582 ft 305 kts 353°
2026-04-23 15:29 43.22787 5.02524 10418 ft 294 kts 358°
2026-04-23 15:29 43.24780 5.02366 10287 ft 283 kts 358°
2026-04-23 15:29 43.26714 5.02232 10099 ft 276 kts 359°
2026-04-23 15:29 43.28634 5.02100 9726 ft 276 kts 359°
2026-04-23 15:30 43.30550 5.01962 9391 ft 275 kts 359°
2026-04-23 15:30 43.32455 5.01826 9064 ft 274 kts 359°
2026-04-23 15:30 43.34334 5.01797 8721 ft 272 kts
2026-04-23 15:30 43.36218 5.01874 8380 ft 270 kts
2026-04-23 15:31 43.38089 5.01969 8051 ft 268 kts
2026-04-23 15:31 43.39944 5.02064 7745 ft 266 kts
2026-04-23 15:31 43.41788 5.02151 7430 ft 265 kts
2026-04-23 15:31 43.43592 5.01731 7076 ft 269 kts 338°
2026-04-23 15:32 43.45129 5.00241 6615 ft 276 kts 317°
2026-04-23 15:32 43.46513 4.98353 6135 ft 281 kts 316°
2026-04-23 15:32 43.47892 4.96449 5659 ft 284 kts 317°
2026-04-23 15:32 43.49291 4.94546 5281 ft 283 kts 317°
2026-04-23 15:33 43.50657 4.92707 5199 ft 269 kts 317°
2026-04-23 15:33 43.51984 4.90932 5202 ft 262 kts 317°
2026-04-23 15:33 43.53284 4.89202 5201 ft 257 kts 316°
2026-04-23 15:33 43.54561 4.87500 5097 ft 256 kts 316°
2026-04-23 15:34 43.55817 4.85817 5039 ft 244 kts 317°
2026-04-23 15:34 43.57171 4.84556 4993 ft 229 kts 348°
2026-04-23 15:34 43.58709 4.84683 5003 ft 225 kts 27°
2026-04-23 15:34 43.59871 4.86045 5008 ft 222 kts 59°
2026-04-23 15:35 43.60607 4.87913 5011 ft 221 kts 62°
2026-04-23 15:35 43.61337 4.89778 4889 ft 224 kts 61°
2026-04-23 15:35 43.62088 4.91662 4603 ft 223 kts 65°
2026-04-23 15:35 43.62350 4.93717 4341 ft 221 kts 98°
2026-04-23 15:36 43.61774 4.95650 4142 ft 217 kts 123°
2026-04-23 15:36 43.60829 4.97229 4012 ft 209 kts 131°
2026-04-23 15:36 43.59850 4.98639 4115 ft 199 kts 133°
2026-04-23 15:36 43.58895 4.99962 3970 ft 189 kts 133°
2026-04-23 15:37 43.57975 5.01225 3741 ft 184 kts 133°
2026-04-23 15:37 43.57092 5.02434 3522 ft 176 kts 133°
2026-04-23 15:37 43.56529 5.03207 3362 ft 172 kts 133°
2026-04-23 15:37 43.55430 5.04712 3060 ft 160 kts 132°
2026-04-23 15:38 43.54672 5.05754 2836 ft 150 kts 133°
2026-04-23 15:38 43.53956 5.06742 2637 ft 143 kts 134°
2026-04-23 15:38 43.53257 5.07709 2464 ft 142 kts 135°
2026-04-23 15:38 43.52562 5.08669 2289 ft 142 kts 136°
2026-04-23 15:39 43.51858 5.09640 2122 ft 142 kts 135°
2026-04-23 15:39 43.51162 5.10600 1936 ft 142 kts 134°
2026-04-23 15:39 43.50454 5.11575 1753 ft 144 kts 133°
2026-04-23 15:39 43.49743 5.12551 1571 ft 143 kts 132°
2026-04-23 15:40 43.49054 5.13501 1381 ft 138 kts 133°
2026-04-23 15:40 43.48385 5.14424 1195 ft 136 kts 134°
2026-04-23 15:40 43.47718 5.15348 1017 ft 135 kts 135°
2026-04-23 15:40 43.47062 5.16256 841 ft 135 kts 136°
2026-04-23 15:41 43.46402 5.17169 668 ft 134 kts 136°
2026-04-23 15:41 43.45741 5.18083 490 ft 134 kts 137°
2026-04-23 15:41 43.45089 5.18984 322 ft 133 kts 137°
2026-04-23 15:41 43.44439 5.19883 144 ft 132 kts 139°
2026-04-23 15:42 43.43795 5.20763 29 ft 129 kts 137°
2026-04-23 15:42 43.43362 5.21352 42 ft 43 kts 134°
2026-04-23 15:42 43.43186 5.21596 49 ft 33 kts 134°
2026-04-23 15:42 43.43037 5.21806 55 ft 28 kts 135°
2026-04-23 15:43 43.42928 5.22004 60 ft 20 kts 97°
2026-04-23 15:43 43.42941 5.22149 62 ft 14 kts 81°
2026-04-23 15:43 43.42960 5.22276 64 ft 13 kts 71°
2026-04-23 15:43 43.43011 5.22379 65 ft 13 kts 44°
2026-04-23 15:44 43.43085 5.22464 65 ft 14 kts 26°
2026-04-23 15:44 43.43186 5.22492 64 ft 14 kts 351°
2026-04-23 15:44 43.43270 5.22409 62 ft 16 kts 312°
2026-04-23 15:44 43.43357 5.22303 58 ft 17 kts 336°
2026-04-23 15:45 43.43470 5.22243 55 ft 17 kts 331°
2026-04-23 15:45 43.43579 5.22154 52 ft 18 kts 329°
2026-04-23 15:45 43.43682 5.22131 50 ft 14 kts 37°
2026-04-23 15:45 43.43755 5.22218 50 ft 13 kts 15°
2026-04-23 15:46 43.43804 5.22261 49 ft 5 kts 71°
2026-04-23 15:46 43.43814 5.22306 50 ft 3 kts 73°
2026-04-23 15:46 43.43816 5.22316 50 ft 0 kts 74°